User: anonymous   Login
Location: Unspecified
(0.0000°N, 0.0000°E)
Time: 22:46:30
(UTC+00:00)
Language:

STARLINK-33985 - Orbit

View from above orbital plane
View from above orbital plane
View from above satellite
View from above satellite

Ground track
Ground track

The orbit is defined by the following mean orbital elements,

1 63943U          26145.51688925 +.00000000 +00000-0 +15005-3 0 00004
2 63943  70.0029  80.6069 0002430 280.1183  79.9702 14.98354448    00
Epoch (UTC): 25 May 2026 12:24:19
Eccentricity: 0.0002430
inclination: 70.0029°
perigee height: 570 km
apogee height: 574 km
right ascension of ascending node: 80.6069°
argument of perigee: 280.1183°
revolutions per day: 14.98354448
mean anomaly at epoch: 79.9702°

The dashed part of the orbit path shows where the satellite is in the earth's shadow,  

DLR